FW4468 Weather Reports


time (UTC)temp
C
wind
direction
speed
KPH
gust
KPH
rain 1hr
cm
rain 24hr
cm
rain mn
cm
humidity
%
barometer
mb
20260510041503 13 355 0.0 1.6 0.00 0.00 0.00 56 1015.6
20260510040002 14 355 0.0 1.6 0.00 0.00 0.00 55 1015.4
20260510034502 15 355 0.0 0.0 0.00 0.00 0.00 53 1015.5
20260510033001 15 355 0.0 1.6 0.00 0.00 0.00 52 1015.5
20260510031629 16 355 0.0 0.0 0.00 0.00 0.00 50 1015.3
20260510024559 16 355 0.0 1.6 0.00 0.00 0.00 50 1015.7
20260510023059 16 355 0.0 3.2 0.00 0.00 0.00 48 1015.7
20260510021556 17 355 0.0 6.4 0.00 0.00 0.00 48 1015.8
20260510020054 17 338 0.0 4.8 0.00 0.00 0.00 49 1016.0
20260510014605 17 324 1.6 4.8 0.00 0.00 0.00 48 1016.4
20260510013050 17 107 1.6 8.0 0.00 0.00 0.00 48 1016.5
20260510011552 17 360 0.0 8.0 0.00 0.00 0.00 47 1016.7
20260510010059 17 281 4.8 11.3 0.00 0.00 0.00 47 1017.0
20260510004554 17 288 0.0 8.0 0.00 0.00 0.00 48 1017.0
20260510003057 18 246 0.0 4.8 0.00 0.00 0.00 47 1017.0
20260510001547 17 80 0.0 8.0 0.00 0.00 0.00 47 1017.2
20260510000051 18 350 1.6 9.7 0.00 0.00 0.00 49 1017.4
20260509234558 18 40 1.6 12.9 0.00 0.00 0.00 47 1017.5
20260509233042 18 67 3.2 12.9 0.00 0.00 0.00 47 1017.6
20260509231540 18 21 1.6 9.7 0.00 0.00 0.00 46 1017.7
20260509230039 19 40 3.2 14.5 0.00 0.00 0.00 45 1017.7
20260509224539 20 84 3.2 11.3 0.00 0.00 0.00 43 1017.8
20260509223040 20 355 3.2 8.0 0.00 0.00 0.00 42 1018.1
20260509221535 20 58 1.6 8.0 0.00 0.00 0.00 42 1018.4
20260509220034 20 285 0.0 8.0 0.00 0.00 0.00 44 1018.4
20260509214537 20 42 0.0 4.8 0.00 0.00 0.00 47 1018.4
20260509213028 20 253 1.6 8.0 0.00 0.00 0.00 48 1018.5
20260509211528 20 40 3.2 9.7 0.00 0.00 0.00 47 1018.7
20260509210026 20 280 4.8 12.9 0.00 0.00 0.00 46 1018.9
20260509204529 19 221 0.0 4.8 0.00 0.00 0.00 49 1018.8
20260509203020 18 238 1.6 8.0 0.00 0.00 0.00 46 1019.1
20260509201520 18 236 1.6 8.0 0.00 0.00 0.00 45 1019.1
20260509200018 18 208 4.8 8.0 0.00 0.00 0.00 46 1019.3
20260509194516 18 196 4.8 9.7 0.00 0.00 0.00 47 1019.4
20260509193013 18 250 4.8 11.3 0.00 0.00 0.00 53 1019.8
20260509191511 18 199 3.2 8.0 0.00 0.00 0.00 52 1020.1
20260509190008 17 219 3.2 11.3 0.00 0.00 0.00 54 1020.4
20260509184504 17 346 1.6 12.9 0.00 0.00 0.00 58 1020.4
20260509183002 17 199 3.2 11.3 0.00 0.00 0.00 59 1020.6
20260509181605 16 167 3.2 11.3 0.00 0.00 0.00 61 1020.7
20260509180100 16 189 3.2 11.3 0.00 0.00 0.00 62 1020.6
20260509174603 15 212 3.2 9.7 0.00 0.00 0.00 63 1020.7
20260509173104 15 244 3.2 11.3 0.00 0.00 0.00 64 1020.9
20260509171553 15 215 3.2 11.3 0.00 0.00 0.00 65 1021.0
20260509170047 15 248 3.2 8.0 0.00 0.00 0.00 67 1021.0
20260509164545 13 250 3.2 9.7 0.00 0.00 0.00 71 1021.1
20260509163039 13 200 3.2 8.0 0.00 0.00 0.00 73 1021.2
20260509161535 12 212 3.2 6.4 0.00 0.00 0.00 74 1021.3
20260509160032 11 230 0.0 3.2 0.00 0.00 0.00 76 1021.4
20260509154533 11 238 1.6 4.8 0.00 0.00 0.00 77 1021.6
20260509153029 10 237 1.6 4.8 0.00 0.00 0.00 78 1021.7
20260509151521 9 223 1.6 4.8 0.00 0.00 0.00 80 1021.5
20260509150020 8 167 0.0 1.6 0.00 0.00 0.00 82 1021.7
20260509144516 7 225 0.0 3.2 0.00 0.00 0.00 81 1022.0
20260509143020 7 221 1.6 4.8 0.00 0.00 0.00 82 1022.0
20260509141513 6 151 0.0 0.0 0.00 0.00 0.00 82 1021.7
20260509140012 6 151 0.0 0.0 0.00 0.00 0.00 81 1021.8
20260509134511 6 151 0.0 0.0 0.00 0.00 0.00 80 1021.9
20260509133010 5 151 0.0 0.0 0.00 0.00 0.00 79 1021.9
20260509131515 5 151 0.0 0.0 0.00 0.00 0.00 79 1021.9
20260509130016 5 151 0.0 0.0 0.00 0.00 0.00 78 1022.0
20260509124507 5 151 0.0 0.0 0.00 0.00 0.00 77 1021.9
20260509123006 5 151 0.0 0.0 0.00 0.00 0.00 76 1021.7
20260509121506 5 151 0.0 0.0 0.00 0.00 0.00 76 1021.8
20260509120003 5 151 0.0 0.0 0.00 0.00 0.00 75 1022.0
20260509114503 6 151 0.0 0.0 0.00 0.00 0.00 74 1022.2
20260509113103 6 151 0.0 0.0 0.00 0.00 0.00 73 1022.2
20260509111606 6 151 0.0 0.0 0.00 0.00 0.00 72 1022.3
20260509110059 6 151 0.0 0.0 0.00 0.00 0.00 72 1022.3
20260509104556 6 151 0.0 0.0 0.00 0.00 0.00 71 1022.3
20260509103057 6 151 0.0 0.0 0.00 0.00 0.00 71 1022.2
20260509101554 6 151 0.0 0.0 0.00 0.00 0.00 70 1022.2
20260509100053 6 151 0.0 0.0 0.00 0.00 0.00 70 1022.2
20260509094552 6 151 0.0 0.0 0.00 0.00 0.00 70 1022.4
20260509093050 6 151 0.0 0.0 0.00 0.00 0.00 69 1022.4
20260509091549 6 151 0.0 0.0 0.00 0.00 0.00 69 1022.4
20260509084546 7 151 0.0 0.0 0.00 0.00 0.00 68 1022.5
20260509083050 7 151 0.0 0.0 0.00 0.00 0.00 68 1022.6
20260509081543 7 151 0.0 0.0 0.00 0.00 0.00 68 1022.6
20260509080043 7 151 0.0 0.0 0.00 0.00 0.00 67 1022.5
20260509074539 7 151 0.0 0.0 0.00 0.00 0.00 67 1022.3
20260509073041 7 151 0.0 0.0 0.00 0.00 0.00 67 1022.3
20260509071535 8 151 0.0 0.0 0.00 0.00 0.00 67 1022.1
20260509070036 8 151 0.0 0.0 0.00 0.00 0.00 67 1022.0
20260509064534 8 151 0.0 0.0 0.00 0.00 0.00 67 1021.9
20260509063034 8 151 0.0 0.0 0.00 0.00 0.00 66 1021.9
20260509061539 9 151 0.0 0.0 0.00 0.00 0.00 66 1021.7
20260509060033 9 151 0.0 0.0 0.00 0.00 0.00 65 1021.7
20260509054530 10 151 0.0 1.6 0.00 0.00 0.00 65 1021.8
20260509053037 10 153 0.0 1.6 0.00 0.00 0.00 64 1021.8
20260509051530 10 153 0.0 1.6 0.00 0.00 0.00 64 1021.8
20260509050030 11 150 0.0 1.6 0.00 0.00 0.00 63 1021.8
20260509044527 11 150 0.0 1.6 0.00 0.00 0.00 62 1021.7
20260509043025 11 150 0.0 4.8 0.00 0.00 0.00 61 1021.6
20260509041535 11 208 0.0 3.2 0.00 0.00 0.00 60 1021.5